Bullhead City, AZ

11:11 PM MST on July 24, 2017 (GMT -0700)
Laughlin-Bullhead International

Weather History for KIFP - January, 2013

Change the Weather History Date:

Monday, January 7, 2013

  Actual Average Record
Temperature  
Mean Temperature 53 °F -  
Max Temperature 62 °F 62 °F 82 °F (2008)
Min Temperature 44 °F 46 °F 29 °F (1989)
Degree Days  
Heating Degree Days 12    
Growing Degree Days 3 (Base 50)    
Moisture  
Dew Point 23 °F    
Average Humidity 34    
Maximum Humidity 50    
Minimum Humidity 16    
Precipitation  
Precipitation 0.00 in - - ()
Sea Level Pressure  
Sea Level Pressure 29.99 in    
Wind  
Wind Speed 16 mph (North)    
Max Wind Speed 32 mph    
Max Gust Speed 41 mph    
Visibility 10 miles    
Events      
Averages and records for this station are not official NWS values.
T = Trace of Precipitation, MM = Missing Value Source: NWS Daily Summary

Daily Weather History Graph

Daily Weather History Graph

Search for Another Location

Airport or City:

Trip Planner

Search our weather history database for the weather conditions in past years. The results will help you decide how hot, cold, wet, or windy it might be!

Date:

Astronomy

Jan. 07, 2013 Rise Set
Actual Time 7:47 AM MST 5:42 PM MST
Civil Twilight 7:19 AM MST 6:10 PM MST
Nautical Twilight 6:47 AM MST 6:41 PM MST
Astronomical Twilight 6:17 AM MST 7:12 PM MST
Moon 3:18 AM MST (1/7) 1:55 PM MST (1/7)
Length of Visible Light 10h 51m
Length of Day
9h 55m
Waning Crescent, 22% of the Moon is Illuminated
Jan 7
Waning Crescent
Jan 11
New
Jan 18
First Quarter
Jan 26
Full
Feb 3
Last Quarter

Hourly Weather History & Observations

Time (MST) Temp. Windchill Dew Point Humidity Pressure Visibility Wind Dir Wind Speed Gust Speed Precip Events Conditions
12:15 AM 44.6 °F 40.7 °F 23.0 °F 43% 29.98 in 10.0 mi North 6.9 mph - N/A   Clear
12:35 AM 44.6 °F 41.4 °F 26.6 °F 49% 29.98 in 10.0 mi NNE 5.8 mph - N/A   Clear
12:55 AM 44.6 °F 42.2 °F 21.2 °F 39% 29.98 in 10.0 mi NE 4.6 mph - N/A   Clear
1:15 AM 46.4 °F - 19.4 °F 34% 29.98 in 10.0 mi Calm Calm - N/A   Clear
1:35 AM 46.4 °F 40.4 °F 19.4 °F 34% 29.98 in 10.0 mi North 13.8 mph - N/A   Clear
1:55 AM 48.2 °F - 19.4 °F 32% 29.96 in 10.0 mi North 17.3 mph 20.7 mph N/A   Clear
2:15 AM 48.2 °F - 19.4 °F 32% 29.97 in 10.0 mi NNE 13.8 mph - N/A   Clear
2:35 AM 48.2 °F - 21.2 °F 34% 29.97 in 10.0 mi NNE 13.8 mph - N/A   Clear
2:55 AM 48.2 °F - 19.4 °F 32% 29.97 in 10.0 mi North 18.4 mph 24.2 mph N/A   Clear
3:15 AM 48.2 °F - 21.2 °F 34% 29.97 in 10.0 mi North 15.0 mph - N/A   Clear
3:35 AM 48.2 °F - 24.8 °F 40% 29.97 in 10.0 mi NNE 19.6 mph - N/A   Clear
3:55 AM 48.2 °F - 23.0 °F 37% 29.97 in 10.0 mi NNE 18.4 mph 23.0 mph N/A   Clear
4:15 AM 48.2 °F - 24.8 °F 40% 29.97 in 10.0 mi North 16.1 mph - N/A   Clear
4:35 AM 48.2 °F - 26.6 °F 43% 29.97 in 10.0 mi North 16.1 mph 20.7 mph N/A   Clear
4:55 AM 46.4 °F 39.8 °F 26.6 °F 46% 29.96 in 10.0 mi NNE 16.1 mph - N/A   Clear
5:15 AM 48.2 °F - 26.6 °F 43% 29.96 in 10.0 mi North 19.6 mph 23.0 mph N/A   Clear
5:35 AM 48.2 °F - 28.4 °F 46% 29.95 in 10.0 mi North 20.7 mph 26.5 mph N/A   Clear
5:55 AM 48.2 °F - 28.4 °F 46% 29.95 in 10.0 mi NNE 19.6 mph 26.5 mph N/A   Clear
6:35 AM 48.2 °F - 28.4 °F 46% 29.96 in 10.0 mi North 23.0 mph 26.5 mph N/A   Clear
6:55 AM 46.4 °F 38.3 °F 28.4 °F 50% 29.97 in 10.0 mi NNE 23.0 mph - N/A   Clear
7:15 AM 48.2 °F - 28.4 °F 46% 29.98 in 10.0 mi North 20.7 mph 28.8 mph N/A   Clear
7:35 AM 48.2 °F - 28.4 °F 46% 29.99 in 10.0 mi NNE 23.0 mph - N/A   Clear
7:55 AM 48.2 °F - 26.6 °F 43% 30.00 in 10.0 mi NNE 20.7 mph - N/A   Clear
8:15 AM 48.2 °F - 26.6 °F 43% 30.02 in 10.0 mi NNE 18.4 mph - N/A   Clear
8:35 AM 48.2 °F - 26.6 °F 43% 30.03 in 10.0 mi NNE 19.6 mph 25.3 mph N/A   Clear
8:55 AM 48.2 °F - 28.4 °F 46% 30.04 in 10.0 mi NNE 17.3 mph - N/A   Clear
9:15 AM 48.2 °F - 28.4 °F 46% 30.04 in 10.0 mi NNE 21.9 mph - N/A   Clear
9:35 AM 50.0 °F - 26.6 °F 40% 30.04 in 10.0 mi North 24.2 mph 27.6 mph N/A   Clear
9:55 AM 50.0 °F - 26.6 °F 40% 30.05 in 10.0 mi North 23.0 mph 29.9 mph N/A   Clear
10:15 AM 51.8 °F - 26.6 °F 38% 30.06 in 10.0 mi North 18.4 mph 26.5 mph N/A   Clear
10:35 AM 53.6 °F - 26.6 °F 35% 30.06 in 10.0 mi North 23.0 mph 28.8 mph N/A   Clear
10:55 AM 53.6 °F - 24.8 °F 33% 30.06 in 10.0 mi North 25.3 mph 32.2 mph N/A   Clear
11:15 AM 55.4 °F - 23.0 °F 29% 30.06 in 10.0 mi North 24.2 mph 29.9 mph N/A   Clear
11:35 AM 55.4 °F - 23.0 °F 29% 30.05 in 10.0 mi North 23.0 mph 32.2 mph N/A   Clear
11:55 AM 55.4 °F - 23.0 °F 29% 30.03 in 10.0 mi North 27.6 mph 34.5 mph N/A   Clear
12:15 PM 57.2 °F - 19.4 °F 23% 30.02 in 10.0 mi North 25.3 mph 36.8 mph N/A   Clear
12:35 PM 57.2 °F - 17.6 °F 21% 30.01 in 10.0 mi North 26.5 mph 36.8 mph N/A   Clear
12:55 PM 57.2 °F - 19.4 °F 23% 30.00 in 10.0 mi North 29.9 mph 38.0 mph N/A   Clear
1:15 PM 57.2 °F - 19.4 °F 23% 29.98 in 10.0 mi North 28.8 mph 35.7 mph N/A   Clear
1:35 PM 59.0 °F - 17.6 °F 20% 29.96 in 10.0 mi NNW 32.2 mph 40.3 mph N/A   Clear
1:55 PM 59.0 °F - 15.8 °F 19% 29.97 in 10.0 mi North 25.3 mph 41.4 mph N/A   Clear
2:15 PM 60.8 °F - 15.8 °F 17% 29.96 in 10.0 mi North 29.9 mph 35.7 mph N/A   Clear
2:35 PM 60.8 °F - 15.8 °F 17% 29.96 in 10.0 mi NNW 24.2 mph 28.8 mph N/A   Clear
2:55 PM 62.6 °F - 15.8 °F 16% 29.96 in 10.0 mi North 27.6 mph 33.4 mph N/A   Clear
3:15 PM 62.6 °F - 17.6 °F 18% 29.96 in 10.0 mi NNW 26.5 mph 31.1 mph N/A   Clear
3:35 PM 62.6 °F - 17.6 °F 18% 29.97 in 10.0 mi NNW 23.0 mph 32.2 mph N/A   Clear
3:55 PM 62.6 °F - 15.8 °F 16% 29.97 in 10.0 mi North 20.7 mph 28.8 mph N/A   Clear